Regional Weather Roundup
Issued by NWS Raleigh/Durham, NC

Home | Current Version | Previous Version | Text Only | Print | Product List | Glossary On
Versions: 1 2 3 4 5 6 7 8 9 10 11 12 13 14 15 16 17 18 19 20 21 22 23 24 25 26 27 28 29 30 31 32 33 34 35 36 37 38 39 40 41 42 43 44 45 46 47 48 49 50
000
ASUS42 KRAH 031410
RWRRAH
NORTH CAROLINA WEATHER ROUNDUP
NATIONAL WEATHER SERVICE RALEIGH NC
1000 AM EDT SUN MAY 03 2015

NOTE: "FAIR" INDICATES FEW OR NO CLOUDS BELOW 12,000 FEET WITH NO
SIGNIFICANT WEATHER AND/OR OBSTRUCTIONS TO VISIBILITY.

NCZ001-053-055-056-065-067-031500-
WESTERN NORTH CAROLINA

CITY           SKY/WX    TMP DP  RH WIND       PRES   REMARKS
ASHEVILLE      SUNNY     59  43  55 CALM      30.23R
JEFFERSON      SUNNY     58  39  48 E3        30.24S
MORGANTON      MOSUNNY   62  42  48 CALM      30.26S
HICKORY        MOSUNNY   63  47  55 CALM      30.21R
RUTHERFORDTON  MOSUNNY   65  46  50 CALM      30.22R
MOUNT AIRY     SUNNY     66  50  57 CALM      30.22S
BOONE          SUNNY     60  36  40 W3        30.24S
$$

NCZ021-022-025-041-071-084-088-031500-
CENTRAL NORTH CAROLINA

CITY           SKY/WX    TMP DP  RH WIND       PRES   REMARKS
CHARLOTTE      SUNNY     69  49  48 CALM      30.21R
GREENSBORO     MOSUNNY   69  44  40 W3        30.19S
WINSTON-SALEM  SUNNY     67  44  43 VRB5      30.21S
RALEIGH-DURHAM MOSUNNY   65  51  60 W7        30.20S
FORT BRAGG     SUNNY     70  53  53 VRB3      30.19R
FAYETTEVILLE   SUNNY     71  51  49 W6        30.19S
BURLINGTON     SUNNY     66  49  54 SW3       30.20R
LAURINBURG     SUNNY     69  52  54 CALM      30.20R
$$

NCZ011-015-027-028-043-044-047-080-103-031500-
NORTHEASTERN NORTH CAROLINA

CITY           SKY/WX    TMP DP  RH WIND       PRES   REMARKS
ROCKY MT-WILSO SUNNY     69  55  60 W6        30.19S
GREENVILLE     SUNNY     68  54  60 NW6       30.20R
WASHINGTON     SUNNY     66  53  63 W6        30.19R
ELIZABETH CITY SUNNY     68  53  58 W10       30.16S
MANTEO         SUNNY     65  53  65 NW7       30.16S
CAPE HATTERAS  SUNNY     61  55  81 W9        30.17S
$$

NCZ078-087-090-091-093-098-101-031500-
SOUTHEASTERN NORTH CAROLINA

CITY           SKY/WX    TMP DP  RH WIND       PRES   REMARKS
LUMBERTON      SUNNY     73  55  53 CALM      30.19R
GOLDSBORO      SUNNY     67  55  66 W6        30.18R
KINSTON        SUNNY     68  54  60 W6        30.20S
KENANSVILLE    SUNNY     70  51  50 SW3       30.20S
NEW BERN       SUNNY     70  54  56 W7        30.20R
CHERRY POINT   SUNNY     70  54  56 W3        30.20R
BEAUFORT       SUNNY     70  55  59 NW7       30.19R
JACKSONVILLE   SUNNY     70  52  52 W6        30.19R
WILMINGTON     SUNNY     72  50  45 NW5       30.20R
$$




USA.gov is the U.S. government's official web portal to all federal, state and local government web resources and services.